カタログに戻る

STARLINK-36422

運用中通信VLEO
NORAD 67344·PAYLOAD·🇺🇸 United States

打ち上げ Jan 9, 2026 から Cape Canaveral Space Force Station

Loading…

次のパス (今後24時間)

TLE

最新Source: CelesTrak SupGP

元期: Sep 14, 2026, 23:18 UTC

1 67344C 26003L   26257.97131944  .00017516  00000+0  63442-3 0  2573
2 67344  42.9998 237.8131 0001345 267.0823 157.5069 15.27570069    19

AllMySatでSTARLINK-36422をリアルタイム追跡

Download on the App Store